TOURFACTS.DK  
Stats and Facts from Tour de France.

Tour de France 2019 starts in 320 days
  Riders   Stages   Teams   Summits   Yearly  


 
Search by year

After 2018 - Stage 21:
 15000 starters.
  5165 different riders.
  638 teams.
  2253 stages.
  456 restdays.
  442940.60 km.
  5684 abandonnees.


Top 3
GC
Geraint Thomas83:17:13
Tom Dumoulin83:19:04
Christopher Froome83:19:37
Climb
Julian Alaphilippe170 pt.
Warren Barguil91 pt.
Rafal Majka76 pt.
Sprint
Peter Sagan477 pt.
Alexander Kristoff246 pt.
Arnaud Démare203 pt.
Youth
Pierre-Roger Latou..83:39:26
Egan Bernal83:45:05
Guillaume Martin84:01:31
Facts from Tour de France 2017
  |   Stages.  |   Stage winners.  |   Days in yellow  |   Average speed.  |   Route.  |   Teams.  |   All riders.  |   Rookies.  |  

  |   Withdrawls.  |   GC.  |   Polka  |   Green  |   White  |   Summits. (In tour)  |   Miscellaneous.  |  

Stage 3 on 03 - 07 - 2017
         Owning:    Geraint Thomas      Nathan Brown      Marcel Kittel      Pierre-Roger Latour  

Pick a stage:  1 2 3 4 5 6 7 8 9 10 11 12 13 14 15 16 17 18 19 20 21
  VerviersLongwy | Dist: 212.50 km.
Cat: 4Côte de SartUSANathan Brown1 points 
Cat: 4Côte de WiltzGERNils Politt1 points 
Cat: 3Côte d'EschdorfGERNils Politt2 points 
Cat: 4Côte de Villers-la-MontagneFRALilian Calmejane1 points 
Cat: 3LONGWY - Côte des ReligieusesSVKPeter Sagan2 points 

Average speed for all riders in stage:  41,156 km./hr.
    Place:Name:Team:Time:Km/h:
1
SVKPeter SaganDEUBora–Hansgrohe05:07:19  +  00:00:00=41,488 
2
AUSMichael MatthewsDEUTeam Sunweb05:07:19  +  00:00:00=41,488 
3
ENGDaniel MartinBELQuick-Step Floors05:07:19  +  00:00:00=41,488 
44 BELGreg Van AvermaetUSABMC Racing Team05:07:19  +  00:00:00=41,488 
55 ITAAlberto BettiolUSACannondale-Drapac Pro Cycling ..05:07:21  +  00:00:02=41,484 
66 FRAArnaud DémareFRAFDJ05:07:21  +  00:00:02=41,484 
77 SUIJakob FuglsangKAZAstana Pro Team05:07:21  +  00:00:02=41,484 
88 WALGeraint ThomasGBRSky Procycling05:07:21  +  00:00:02=41,484 
99 KENChristopher FroomeGBRSky Procycling05:07:21  +  00:00:02=41,484 
1010 POLRafal MajkaDEUBora–Hansgrohe05:07:21  +  00:00:02=41,484 
1111 COLNairo QuintanaESPMovistar Team05:07:21  +  00:00:02=41,484 
1212 FRARomain BardetFRAAg2r La Mondiale05:07:21  +  00:00:02=41,484 
1313 BELTim WellensBELLotto Soudal05:07:21  +  00:00:02=41,484 
1414 AUSRichie PorteUSABMC Racing Team05:07:21  +  00:00:02=41,484 
1515 BELTiesj BenootBELLotto Soudal05:07:21  +  00:00:02=41,484 
1616 FRAGuillaume MartinBELWanty – Groupe Gobert05:07:21  +  00:00:02=41,484 
1717 ITAFabio AruKAZAstana Pro Team05:07:21  +  00:00:02=41,484 
1818 ESPAlberto ContadorUSATrek - Segafredo05:07:21  +  00:00:02=41,484 
1919 COLRigoberto UránUSACannondale-Drapac Pro Cycling ..05:07:21  +  00:00:02=41,484 
2020 COLJohan Esteban ChavesAUSOrica - Scott05:07:21  +  00:00:02=41,484 
2121 FRAPierre-Roger LatourFRAAg2r La Mondiale05:07:21  +  00:00:02=41,484 
2222 BELPhilippe GilbertBELQuick-Step Floors05:07:21  +  00:00:02=41,484 
2323 COLCarlos Alberto BetancurESPMovistar Team05:07:21  +  00:00:02=41,484 
2424 RSALouis MeintjesUAEUAE Team Emirates05:07:21  +  00:00:02=41,484 
2525 CZERoman KreuzigerAUSOrica - Scott05:07:21  +  00:00:02=41,484 
2626 ESPMikel Landa MeanaGBRSky Procycling05:07:21  +  00:00:02=41,484 
2727 NOREdvald Boasson HagenZAFDimension Data05:07:21  +  00:00:02=41,484 
2828 GEREmanuel BuchmannDEUBora–Hansgrohe05:07:21  +  00:00:02=41,484 
2929 ITADiego UlissiUAEUAE Team Emirates05:07:21  +  00:00:02=41,484 
3030 AUSSimon ClarkeUSACannondale-Drapac Pro Cycling ..05:07:29  +  00:00:10=41,466 
3131 FRAAlexis VuillermozFRAAg2r La Mondiale05:07:29  +  00:00:10=41,466 
3232 ESPJesus HerradaESPMovistar Team05:07:29  +  00:00:10=41,466 
3333 KAZAlexey LutsenkoKAZAstana Pro Team05:07:29  +  00:00:10=41,466 
3434 ENGSimon YatesAUSOrica - Scott05:07:29  +  00:00:10=41,466 
3535 COLSergio Luis HenaoGBRSky Procycling05:07:29  +  00:00:10=41,466 
3636 BELSerge PauwelsZAFDimension Data05:07:29  +  00:00:10=41,466 
3737 SUIMathias FrankFRAAg2r La Mondiale05:07:29  +  00:00:10=41,466 
3838 FRARudy MolardFRAFDJ05:07:29  +  00:00:10=41,466 
3939 FRAElie GesbertFRAFortuneo - Vital Concept05:07:34  +  00:00:15=41,454 
4040 FRAWarren BarguilDEUTeam Sunweb05:07:34  +  00:00:15=41,454 
4141 FRASylvain ChavanelFRADirect Energie05:07:38  +  00:00:19=41,445 
4242 POLMichal KwiatkowskiGBRSky Procycling05:07:38  +  00:00:19=41,445 
4343 FRABrice FeilluFRAFortuneo - Vital Concept05:07:39  +  00:00:20=41,443 
4444 NZLGeorge BennettNLDTeam Lotto NL - Jumbo05:07:39  +  00:00:20=41,443 
4545 BELJan BakelantsFRAAg2r La Mondiale05:07:39  +  00:00:20=41,443 
4646 GERSimon GeschkeDEUTeam Sunweb05:07:39  +  00:00:20=41,443 
4747 GERNikias ArndtDEUTeam Sunweb05:07:39  +  00:00:20=41,443 
4848 USAAndrew TalanskyUSACannondale-Drapac Pro Cycling ..05:07:44  +  00:00:25=41,432 
4949 FRANicolas RocheUSABMC Racing Team05:07:44  +  00:00:25=41,432 
5050 FRAMaxime BouetFRAFortuneo - Vital Concept05:07:44  +  00:00:25=41,432 
5151 SUIMichael AlbasiniAUSOrica - Scott05:07:47  +  00:00:28=41,425 
5252 CZEZdenek StybarBELQuick-Step Floors05:07:47  +  00:00:28=41,425 
5353 RSAReinardt Janse Van RensburgZAFDimension Data05:07:47  +  00:00:28=41,425 
5454 PORTiago PintoCHETeam Katusha - Alpecin05:07:47  +  00:00:28=41,425 
5555 RSADaryl ImpeyAUSOrica - Scott05:07:47  +  00:00:28=41,425 
5656 ESPDaniel NavarroFRACofidis – Solutions Crédits05:07:47  +  00:00:28=41,425 
5757 SUIStefan KüngUSABMC Racing Team05:07:54  +  00:00:35=41,410 
5858 BELThomas DegandBELWanty – Groupe Gobert05:07:54  +  00:00:35=41,410 
5959 ESPMikel NieveGBRSky Procycling05:07:54  +  00:00:35=41,410 
6060 FRAAngelo TulikFRADirect Energie05:07:54  +  00:00:35=41,410 
6161 ITASonny ColbrelliBHRBahrain-Merida05:07:58  +  00:00:39=41,401 
6262 SLOGrega BoleBHRBahrain-Merida05:08:10  +  00:00:51=41,374 
6363 HRVRobert KiserlovskiCHETeam Katusha - Alpecin05:08:17  +  00:00:58=41,358 
6464 BELPieter VanspeybrouckBELWanty – Groupe Gobert05:08:17  +  00:00:58=41,358 
6565 GERJohn DegenkolbUSATrek - Segafredo05:08:24  +  00:01:05=41,342 
6666 FRANicolas EdetFRACofidis – Solutions Crédits05:08:24  +  00:01:05=41,342 
6767 FRAJulien SimonFRACofidis – Solutions Crédits05:08:24  +  00:01:05=41,342 
6868 ITADamiano CarusoUSABMC Racing Team05:08:24  +  00:01:05=41,342 
6969 COLJarlinson Pantano GomezUSATrek - Segafredo05:08:24  +  00:01:05=41,342 
7070 ARGEduardo SepulvedaFRAFortuneo - Vital Concept05:08:24  +  00:01:05=41,342 
7171 DENMichael ValgrenKAZAstana Pro Team05:08:24  +  00:01:05=41,342 
7272 ENGScott ThwaitesZAFDimension Data05:08:48  +  00:01:29=41,289 
7373 FRALilian CalmejaneFRADirect Energie05:08:56  +  00:01:37=41,271 
7474 BLRVasil KiryienkaGBRSky Procycling05:08:56  +  00:01:37=41,271 
7575 AUSJay McCarthyDEUBora–Hansgrohe05:08:56  +  00:01:37=41,271 
7676 BELOliver NaesenFRAAg2r La Mondiale05:08:56  +  00:01:37=41,271 
7777 ITAManuele MoriUAEUAE Team Emirates05:08:56  +  00:01:37=41,271 
7878 NZLDion SmithBELWanty – Groupe Gobert05:08:56  +  00:01:37=41,271 
7979 GERPaul MartensNLDTeam Lotto NL - Jumbo05:08:56  +  00:01:37=41,271 
8080 JPNYukiya ArashiroBHRBahrain-Merida05:08:56  +  00:01:37=41,271 
8181 ITAMarco MarcatoUAEUAE Team Emirates05:08:56  +  00:01:37=41,271 
8282 NORAlexander KristoffCHETeam Katusha - Alpecin05:09:01  +  00:01:42=41,260 
8383 NZLPaddy BevinUSACannondale-Drapac Pro Cycling ..05:09:08  +  00:01:49=41,244 
8484 GERRick ZabelCHETeam Katusha - Alpecin05:09:08  +  00:01:49=41,244 
8585 NEDMarco MinnaardBELWanty – Groupe Gobert05:09:08  +  00:01:49=41,244 
8686 SLOJanez BrajkovicBHRBahrain-Merida05:09:08  +  00:01:49=41,244 
8787 CZEOndrej CinkBHRBahrain-Merida05:09:08  +  00:01:49=41,244 
8888 ESPHaimar ZubeldiaUSATrek - Segafredo05:09:08  +  00:01:49=41,244 
8989 POLPawel PoljanskiDEUBora–Hansgrohe05:09:08  +  00:01:49=41,244 
9090 SLOPrimoz RoglicNLDTeam Lotto NL - Jumbo05:09:08  +  00:01:49=41,244 
9191 FRAAdrien PetitFRADirect Energie05:09:08  +  00:01:49=41,244 
9292 UKRAndriy GrivkoKAZAstana Pro Team05:09:08  +  00:01:49=41,244 
9393 LUXBen GastauerFRAAg2r La Mondiale05:09:08  +  00:01:49=41,244 
9494 BELJens KeukeleireAUSOrica - Scott05:09:08  +  00:01:49=41,244 
9595 SUIDanilo WyssUSABMC Racing Team05:09:08  +  00:01:49=41,244 
9696 NEDMaurits LammertinkCHETeam Katusha - Alpecin05:09:08  +  00:01:49=41,244 
9797 DENLars BakBELLotto Soudal05:09:08  +  00:01:49=41,244 
9898 AUSDamien HowsonAUSOrica - Scott05:09:08  +  00:01:49=41,244 
9999 FRACyril GautierFRAAg2r La Mondiale05:09:08  +  00:01:49=41,244 
100100 FRAFlorian VachonFRAFortuneo - Vital Concept05:09:08  +  00:01:49=41,244 
101101 NEDJos Van EmdenNLDTeam Lotto NL - Jumbo05:09:08  +  00:01:49=41,244 
102102 ITAFabio FellineUSATrek - Segafredo05:09:08  +  00:01:49=41,244 
103103 ENGBen SwiftUAEUAE Team Emirates05:09:08  +  00:01:49=41,244 
104104 BELGuillaume Van KeirsbulckBELWanty – Groupe Gobert05:09:08  +  00:01:49=41,244 
105105 BELJürgen RoelandtsBELLotto Soudal05:09:08  +  00:01:49=41,244 
106106 ITAAndrea PasqualonBELWanty – Groupe Gobert05:09:08  +  00:01:49=41,244 
107107 NEDKoen De KortUSATrek - Segafredo05:09:08  +  00:01:49=41,244 
108108 FRARomain HardyFRAFortuneo - Vital Concept05:09:08  +  00:01:49=41,244 
109109 ETHTsgabu Gebremaryan GrmayBHRBahrain-Merida05:09:08  +  00:01:49=41,244 
110110 FRAArthur VichotFRAFDJ05:09:08  +  00:01:49=41,244 
111111 NEDMike TeunissenDEUTeam Sunweb05:09:08  +  00:01:49=41,244 
112112 NZLJack BauerBELQuick-Step Floors05:09:24  +  00:02:05=41,209 
113113 ITAMatteo TrentinBELQuick-Step Floors05:09:24  +  00:02:05=41,209 
114114 NEDBauke MollemaUSATrek - Segafredo05:09:55  +  00:02:36=41,140 
115115 ITAFabio SabatiniBELQuick-Step Floors05:09:55  +  00:02:36=41,140 
116116 ITADaniele BennatiESPMovistar Team05:09:55  +  00:02:36=41,140 
117117 ESPJonathan CastroviejoESPMovistar Team05:09:55  +  00:02:36=41,140 
118118 URSIgnatas KonovalovasFRAFDJ05:09:55  +  00:02:36=41,140 
119119 ESPImanol ErvitiESPMovistar Team05:09:55  +  00:02:36=41,140 
120120 CRCAndrey AmadorESPMovistar Team05:09:55  +  00:02:36=41,140 
121121 HRVKristijan DurasekUAEUAE Team Emirates05:09:55  +  00:02:36=41,140 
122122 AUTBernhard EiselZAFDimension Data05:09:55  +  00:02:36=41,140 
123123 GERAndré GreipelBELLotto Soudal05:09:55  +  00:02:36=41,140 
124124 NORVegard Stake LaengenUAEUAE Team Emirates05:09:55  +  00:02:36=41,140 
125125 FRAPierre-Luc PérichonFRAFortuneo - Vital Concept05:09:55  +  00:02:36=41,140 
126126 ENGDaniel McLayFRAFortuneo - Vital Concept05:09:55  +  00:02:36=41,140 
127127 NEDTimo RoosenNLDTeam Lotto NL - Jumbo05:09:55  +  00:02:36=41,140 
128128 GERMarcel KittelBELQuick-Step Floors05:09:55  +  00:02:36=41,140 
129129 NEDRamon SinkeldamDEUTeam Sunweb05:09:55  +  00:02:36=41,140 
130130 GERTony MartinCHETeam Katusha - Alpecin05:09:55  +  00:02:36=41,140 
131131 FRALaurent PichonFRAFortuneo - Vital Concept05:09:55  +  00:02:36=41,140 
132132 FRAPerrig QuemeneurFRADirect Energie05:09:55  +  00:02:36=41,140 
133133 FRAYohann GèneFRADirect Energie05:09:55  +  00:02:36=41,140 
134134 FRAThomas VoecklerFRADirect Energie05:09:55  +  00:02:36=41,140 
135135 NEDRoy CurversDEUTeam Sunweb05:09:55  +  00:02:36=41,140 
136136 POLMaciej BodnarDEUBora–Hansgrohe05:09:55  +  00:02:36=41,140 
137137 NEDLaurens ten DamDEUTeam Sunweb05:09:55  +  00:02:36=41,140 
138138 ITADario CataldoKAZAstana Pro Team05:09:55  +  00:02:36=41,140 
139139 FRAYoann OffredoBELWanty – Groupe Gobert05:09:55  +  00:02:36=41,140 
140140 ESPLuis Angel MateFRACofidis – Solutions Crédits05:10:21  +  00:03:02=41,083 
141141 FRANacer BouhanniFRACofidis – Solutions Crédits05:10:21  +  00:03:02=41,083 
142142 BELDimitri ClaeysFRACofidis – Solutions Crédits05:10:21  +  00:03:02=41,083 
143143 ESPMarkel IrizarUSATrek - Segafredo05:10:21  +  00:03:02=41,083 
144144 SUIMichael SchärUSABMC Racing Team05:10:21  +  00:03:02=41,083 
145145 COLDarwin AtapumaUAEUAE Team Emirates05:10:21  +  00:03:02=41,083 
146146 KAZAndrey ZeitsKAZAstana Pro Team05:10:21  +  00:03:02=41,083 
147147 FRAFlorian SénéchalFRACofidis – Solutions Crédits05:10:21  +  00:03:02=41,083 
148148 KAZDmitriy GruzdevKAZAstana Pro Team05:10:21  +  00:03:02=41,083 
149149 KAZBakhtiyar KozhatayevKAZAstana Pro Team05:10:26  +  00:03:07=41,072 
150150 FRAThibaut PinotFRAFDJ05:10:26  +  00:03:07=41,072 
151151 NEDDylan GroenewegenNLDTeam Lotto NL - Jumbo05:10:26  +  00:03:07=41,072 
152152 AUSMathew HaymanAUSOrica - Scott05:10:31  +  00:03:12=41,061 
153153 NEDDylan Van BaarleUSACannondale-Drapac Pro Cycling ..05:10:35  +  00:03:16=41,052 
154154 NEDRobert GesinkNLDTeam Lotto NL - Jumbo05:10:35  +  00:03:16=41,052 
155155 ITAMatteo BonoUAEUAE Team Emirates05:10:35  +  00:03:16=41,052 
156156 GERMarcel SiebergBELLotto Soudal05:10:35  +  00:03:16=41,052 
157157 GERChristian KneesGBRSky Procycling05:10:43  +  00:03:24=41,034 
158158 GERNils PolittCHETeam Katusha - Alpecin05:10:45  +  00:03:26=41,030 
159159 GERMarcus BurghardtDEUBora–Hansgrohe05:10:45  +  00:03:26=41,030 
160160 GERRobert WagnerNLDTeam Lotto NL - Jumbo05:10:45  +  00:03:26=41,030 
161161 RSAJaco VenterZAFDimension Data05:10:45  +  00:03:26=41,030 
162162 SUIReto HollensteinCHETeam Katusha - Alpecin05:10:45  +  00:03:26=41,030 
163163 FRAAmaël MoinardUSABMC Racing Team05:11:05  +  00:03:46=40,986 
164164 FRAMickael DelageFRAFDJ05:11:08  +  00:03:49=40,979 
165165 FRAChristophe LaporteFRACofidis – Solutions Crédits05:11:08  +  00:03:49=40,979 
166166 WALLuke RoweGBRSky Procycling05:11:12  +  00:03:53=40,970 
167167 ENGStephen CummingsZAFDimension Data05:11:12  +  00:03:53=40,970 
168168 USATaylor PhinneyUSACannondale-Drapac Pro Cycling ..05:11:12  +  00:03:53=40,970 
169169 FRAPierre RollandUSACannondale-Drapac Pro Cycling ..05:11:12  +  00:03:53=40,970 
170170 GERGianluca BrambillaBELQuick-Step Floors05:11:17  +  00:03:58=40,959 
171171 IOMMark CavendishZAFDimension Data05:11:17  +  00:03:58=40,959 
172172 FRACyril LemoineFRACofidis – Solutions Crédits05:11:25  +  00:04:06=40,942 
173173 ESPJavier Moreno BazánBHRBahrain-Merida05:11:33  +  00:04:14=40,924 
174174 FRATony GallopinBELLotto Soudal05:11:33  +  00:04:14=40,924 
175175 FRAAxel DomontFRAAg2r La Mondiale05:11:33  +  00:04:14=40,924 
176176 ITAAlessandro De MarchiUSABMC Racing Team05:11:38  +  00:04:19=40,913 
177177 ITADavide CimolaiFRAFDJ05:11:45  +  00:04:26=40,898 
178178 ITAJacopo GuarnieriFRAFDJ05:11:45  +  00:04:26=40,898 
179179 FRAThomas BoudatFRADirect Energie05:12:05  +  00:04:46=40,854 
180180 AUSMark RenshawZAFDimension Data05:12:47  +  00:05:28=40,763 
181181 AUTMarco HallerCHETeam Katusha - Alpecin05:13:01  +  00:05:42=40,733 
182182 BELThomas De GendtBELLotto Soudal05:13:01  +  00:05:42=40,733 
183183 AUTMichael GoglUSATrek - Segafredo05:13:42  +  00:06:23=40,644 
184184 NEDTom LeezerNLDTeam Lotto NL - Jumbo05:16:47  +  00:09:28=40,248 
185185 SLOBorut BozicBHRBahrain-Merida05:16:47  +  00:09:28=40,248 
186186 NEDAlbert TimmerDEUTeam Sunweb05:19:05  +  00:11:46=39,958 
187187 AUSAdam HansenBELLotto Soudal05:19:05  +  00:11:46=39,958 
188188 FRARomain SicardFRADirect Energie05:19:13  +  00:11:54=39,942 
189189 USANathan BrownUSACannondale-Drapac Pro Cycling ..05:19:13  +  00:11:54=39,942 
190190 BELFrederik BackaertBELWanty – Groupe Gobert05:19:13  +  00:11:54=39,942 
191191 GERJasha SütterlinESPMovistar Team05:19:48  +  00:12:29=39,869 
192192 SVKJuraj SaganDEUBora–Hansgrohe05:19:48  +  00:12:29=39,869 
193193 DDRRüdiger SeligDEUBora–Hansgrohe05:19:48  +  00:12:29=39,869 
194194 BELJulien VermoteBELQuick-Step Floors05:19:48  +  00:12:29=39,869 
195195 FRAOlivier Le GacFRAFDJ05:31:29  +  00:24:10=38,463 

Todays birthdays.

1878  Jean Novo
1883  Jules Chabas
1890  Ange Aubry
1893  Roger Marye
1913  Paul Maye
1914  Lucien Vlaemynck
1915  Alphonse Antoine
1932  Rolf Graf
1953  Julio Rubiano
1959  Jos Haex
1959  Gerard Veldscholten
1963  Pablo Moreno
1964  Juan Castillo
1977  Iban Mayo
1994  Fernando Gaviria